Location: Unspecified
(0.0000°N, 0.0000°E)
Time: 16:25:38
(UTC+00:00)

Vela 2A - Pass Details

Date: 06 December 2021
Orbit: 18140 x 188451 km, 32.5° (Epoch: 20 January)

Event Time Altitude Azimuth Distance (km) Brightness Sun altitude
Rises 08:07:36 0° 61° (ENE) 175,845 ? 31.2°
Reaches altitude 10° 08:56:26 10° 60° (ENE) 176,392 ? 41.9°
Maximum altitude 14:21:33 61° 359° (N) 180,984 ? 47.0°
Drops below altitude 10° 19:42:27 10° 297° (WNW) 190,975 ? -25.5°
Sets 20:29:39 0° 296° (WNW) 192,643 ? -36.0°
